RH
17 17 17 17 18 18 18 16 15 14 13 13 12 12 12 11 10 10 9 9 10 9 9 9 9 9 9 9 8 8 9 9 8 10 14 12 12 14 13 13 12 10 9 9 11 14 13 11 12 11 11 11 11 10 12 13 12 12 13 12 11 12 13 12 13 15 16 16 17 20 22 21 21 19 17 18 18 15 15 14 25 33 31 33 37 45 53 55
20 21 20 20 19 18 17 16 14 13 11 11 12 12 11 12 11 10 9 9 9 9 9 8 9 9 9 9 8 9 9 9 9 9 11 13 14 15 13 12 11 10 10 9 11 13 12 12 12 12 12 12 13 12 12 13 13 13 12 12 11 11 12 12 15 16 15 17 18 21 23 22 20 17 15 18 19 18 19 15 24 33 31 34 38 45 56 58
23 22 22 20 19 18 17 16 15 12 11 11 12 12 12 12 11 9 9 8 8 8 8 8 8 8 8 8 8 8 8 9 12 12 12 14 14 12 11 10 10 10 10 10 12 13 14 16 14 14 13 13 13 13 12 13 14 14 12 12 11 11 12 13 17 18 18 19 19 20 20 18 16 15 16 18 17 18 23 19 22 31 32 37 40 46 54 54
23 23 22 22 20 19 19 18 17 16 14 13 13 12 12 11 10 9 9 8 7 7 8 8 8 7 7 7 7 8 12 18 20 17 15 14 12 10 10 9 9 9 10 11 12 15 17 18 15 14 14 12 13 13 13 14 15 14 13 12 11 13 15 16 20 21 20 18 17 18 17 17 15 16 16 16 16 17 23 22 23 30 31 35 42 48 53 54
24 23 23 23 21 20 20 20 18 18 18 18 16 13 12 11 9 9 9 9 8 7 7 7 7 7 7 7 7 10 20 28 24 20 17 14 11 10 10 9 10 10 10 13 13 15 17 17 15 14 14 12 12 13 14 14 14 14 13 13 12 13 15 16 19 19 16 14 14 16 15 15 14 16 15 14 18 21 23 24 27 33 33 35 42 47 51 53
26 25 24 24 23 21 20 19 18 18 19 20 20 17 13 11 10 9 10 10 8 7 6 6 6 6 6 7 8 13 26 30 22 20 19 16 14 12 11 9 10 10 11 14 14 14 14 14 14 13 13 12 12 14 16 15 14 14 14 14 13 13 13 14 15 15 14 13 14 14 14 15 14 15 14 15 18 21 25 28 31 34 38 40 43 46 47 50
27 26 25 24 23 21 20 19 18 19 19 19 20 20 17 12 11 11 11 10 9 8 7 6 6 6 6 8 11 16 26 28 19 18 15 12 13 11 10 10 9 10 12 13 13 15 13 12 13 12 12 11 11 13 15 16 14 14 14 14 13 13 13 14 14 14 13 13 12 12 13 13 14 14 14 17 18 21 29 33 34 38 44 47 47 49 47 49
25 26 25 24 22 20 19 19 19 19 19 19 18 20 20 14 12 11 10 11 10 9 8 7 6 6 7 9 14 20 26 25 16 14 10 8 10 9 9 9 9 10 12 13 13 15 14 12 12 11 12 11 12 13 13 14 14 13 13 13 13 13 13 13 13 12 12 12 11 11 11 12 13 12 14 17 18 25 37 37 34 38 46 50 49 52 50 48
23 24 23 22 21 19 19 20 19 18 18 19 18 19 20 15 12 11 10 10 11 10 8 8 7 7 9 10 20 28 28 23 16 12 9 9 9 8 8 9 10 11 12 14 15 15 13 12 12 12 13 13 13 13 12 13 13 13 13 12 12 12 12 13 13 11 12 12 11 11 11 11 12 13 14 14 18 29 38 40 40 41 46 50 51 52 51 49
20 20 19 19 19 18 19 20 19 18 18 19 19 19 19 14 12 11 10 10 10 10 9 10 8 9 11 16 29 34 27 21 17 12 9 10 9 8 9 10 10 11 13 16 17 15 14 13 13 14 13 12 14 14 13 12 12 13 13 12 12 11 12 12 13 13 14 13 12 12 11 12 13 14 15 15 24 32 33 41 48 45 42 45 51 52 52 48
16 15 15 15 16 17 18 19 18 18 18 19 19 19 18 15 15 14 11 10 10 9 10 10 9 11 13 20 32 32 22 19 15 11 11 11 9 9 10 12 11 11 16 17 16 15 13 13 14 13 12 12 14 13 11 11 11 12 13 13 12 11 11 11 12 13 14 13 12 12 12 13 14 16 16 20 31 32 32 43 45 43 42 42 47 49 48 47
14 12 12 12 13 15 16 16 17 16 16 18 19 18 19 18 17 16 13 11 10 10 10 10 12 13 14 22 29 24 18 16 13 11 12 11 10 11 11 11 11 13 18 16 13 13 12 13 13 12 14 14 14 13 12 12 12 13 13 11 11 11 11 10 11 12 13 12 13 13 13 14 15 15 17 25 33 30 35 45 43 42 45 46 46 45 47 50
12 11 10 10 12 13 14 14 14 14 13 15 18 18 18 19 18 18 16 14 12 11 11 12 13 13 20 29 25 18 16 14 12 11 11 11 10 11 11 10 10 13 17 16 13 12 12 12 12 12 15 15 15 15 15 15 13 11 11 9 10 11 12 12 12 12 13 12 13 15 14 14 15 15 18 26 31 30 37 46 45 43 41 44 46 43 47 50
11 10 10 10 11 12 13 13 12 13 12 13 17 17 17 18 19 19 19 18 15 13 12 12 14 16 27 33 22 15 16 14 12 12 11 11 10 10 10 10 10 11 13 14 13 12 12 12 11 12 12 12 15 16 15 15 13 10 11 11 10 11 15 17 14 13 14 12 14 15 14 16 19 22 23 25 28 33 41 44 44 43 41 44 45 44 49 51
10 10 11 10 11 12 12 12 12 13 12 13 16 17 17 18 19 20 20 20 18 15 13 13 16 20 29 33 25 17 15 15 14 12 11 11 11 10 9 9 9 10 11 12 13 12 11 10 11 12 12 13 12 12 14 14 13 12 12 13 13 14 18 21 19 17 18 16 16 15 13 16 22 28 27 24 28 36 42 44 43 45 44 47 47 48 54 56
11 11 11 11 11 12 11 11 11 11 11 14 17 17 17 17 18 19 20 20 19 17 14 16 22 25 30 33 29 21 14 15 16 13 12 12 13 13 11 11 10 11 12 11 13 12 11 10 12 12 13 16 14 13 14 15 17 16 13 14 18 19 18 22 24 22 22 22 20 16 13 17 23 29 28 24 26 33 41 46 48 48 48 48 49 51 55 58
11 11 11 12 12 12 12 11 11 11 13 16 17 17 18 17 18 18 20 21 20 19 15 18 25 27 29 28 25 22 19 19 19 16 14 13 15 15 14 14 14 14 13 13 13 12 13 12 13 13 14 16 16 15 15 18 25 25 19 18 23 24 20 22 27 27 26 25 24 18 14 21 27 28 28 26 25 29 38 45 46 47 50 51 48 48 51 53
12 12 12 12 12 12 12 12 12 14 16 17 17 17 17 17 18 17 18 21 22 20 17 19 23 27 31 28 25 25 23 22 20 18 16 14 16 17 15 15 15 15 14 15 14 13 15 13 14 17 17 17 15 16 23 27 32 33 29 26 24 26 25 24 27 31 29 27 28 23 16 21 28 27 28 29 26 27 36 43 43 41 47 51 48 47 48 49
13 14 13 13 13 13 13 14 15 17 16 17 17 17 20 22 24 23 18 20 23 20 23 25 24 27 30 29 29 27 24 23 19 18 18 15 15 17 16 16 16 16 16 17 18 16 16 15 16 20 22 23 20 20 27 31 31 32 35 34 29 29 29 26 27 30 30 29 29 25 20 22 26 28 30 32 28 25 31 39 42 44 46 48 48 49 49 48
14 15 15 14 13 13 15 16 16 17 16 16 15 19 29 30 32 36 28 23 24 21 27 30 24 22 27 30 29 25 21 20 18 18 19 17 16 17 17 17 17 16 16 20 23 21 18 18 22 22 24 27 27 27 28 27 30 32 34 33 32 34 31 26 28 29 28 31 31 27 26 26 26 29 31 33 32 28 29 32 37 45 50 47 46 52 52 50
16 16 16 15 15 14 15 16 15 15 14 15 15 21 34 31 27 35 30 24 25 22 24 28 24 20 27 34 31 23 20 19 18 18 18 18 18 17 17 17 17 17 17 20 26 27 22 20 22 23 25 30 30 31 29 26 27 29 28 26 26 33 31 27 31 32 31 31 29 27 29 29 27 30 32 32 35 33 30 29 29 35 44 44 44 49 51 50
16 17 17 15 16 16 16 16 16 15 14 15 14 21 34 29 20 25 24 21 26 25 23 24 24 21 23 31 29 22 19 20 20 19 18 18 17 18 19 17 18 21 21 21 24 27 24 19 20 23 25 27 28 29 27 23 21 22 23 20 20 27 30 29 31 33 33 31 26 23 26 29 28 30 32 31 32 30 27 27 26 26 31 37 40 44 49 50
15 16 17 16 16 15 16 17 17 17 15 14 13 22 31 24 18 23 23 23 26 29 28 23 22 22 20 25 25 20 19 23 26 23 20 19 17 19 21 20 20 21 23 24 24 24 25 25 26 25 24 25 25 25 23 20 18 17 20 19 19 26 29 30 33 34 34 32 29 26 25 27 28 30 32 30 28 29 29 27 25 25 26 31 37 40 43 48
14 13 15 17 16 15 15 16 17 17 17 16 16 22 24 18 19 25 26 26 27 30 32 26 22 20 20 24 24 20 19 26 32 29 25 23 20 20 22 23 22 20 21 27 27 22 23 29 29 26 26 27 25 23 20 19 18 18 20 20 20 26 31 33 35 35 36 37 36 33 28 25 25 26 28 28 26 28 31 28 24 25 25 27 34 38 41 49
14 12 12 14 15 16 15 15 18 18 20 23 27 28 23 18 20 25 28 30 32 37 37 28 21 21 23 25 23 20 20 24 30 30 26 23 23 23 24 24 22 22 26 31 30 25 25 29 27 25 26 27 27 24 21 22 23 22 22 22 21 24 30 33 34 34 36 40 39 37 33 28 26 26 27 28 30 31 30 30 28 26 25 26 34 44 47 51
14 12 12 11 13 16 16 19 22 23 26 31 36 33 24 19 21 26 32 36 41 46 42 32 26 25 27 27 23 20 22 25 27 28 27 24 23 23 24 24 22 24 29 31 33 32 31 28 25 25 25 25 27 25 23 26 28 27 27 26 25 25 27 29 31 32 34 37 38 38 37 36 33 32 32 32 35 38 36 37 34 30 29 29 37 47 47 49
19 16 15 12 13 14 16 22 24 27 34 39 40 34 24 21 24 27 35 43 46 45 40 34 31 29 31 33 28 23 27 31 31 30 31 30 28 26 25 27 27 27 26 26 28 31 31 29 27 28 27 26 27 25 25 25 27 30 33 32 30 29 30 29 27 28 30 32 34 35 34 35 34 32 33 34 36 40 39 40 38 33 31 32 37 43 43 45
24 23 21 17 16 16 17 20 21 25 35 38 34 30 24 22 25 30 43 52 46 39 38 37 34 31 34 35 29 25 30 33 33 35 36 33 31 29 27 25 27 31 33 30 30 31 30 30 30 30 31 29 25 25 27 27 28 30 32 33 34 34 34 34 32 30 31 33 33 32 31 33 33 31 33 35 37 40 41 42 42 36 34 34 35 37 38 42
22 23 24 22 21 23 24 22 21 23 28 28 26 26 24 23 25 33 50 56 44 38 40 40 37 33 34 36 30 28 30 30 32 35 34 32 30 28 29 28 25 30 38 37 33 30 29 30 30 31 33 32 28 28 29 29 31 33 32 35 37 36 35 36 37 36 35 37 36 33 33 36 36 35 37 37 36 38 41 42 42 39 37 37 37 35 37 42
19 21 23 23 23 29 31 29 27 25 25 26 25 24 23 23 28 39 53 53 43 42 41 39 38 34 33 35 31 30 31 32 33 33 32 32 30 27 29 30 28 29 36 38 33 30 30 31 31 30 31 31 32 32 31 30 31 34 34 36 37 35 35 36 36 36 38 40 38 34 34 37 37 38 42 42 40 39 40 41 42 42 42 42 42 40 40 42
20 19 20 22 23 27 31 33 32 30 28 26 22 21 21 25 34 46 53 48 43 43 40 37 37 35 33 33 31 31 32 33 33 33 33 31 29 28 28 30 31 30 33 34 32 31 33 34 33 31 28 26 28 29 29 29 31 32 32 33 35 33 33 37 37 37 40 40 36 34 36 39 39 41 42 43 42 42 43 44 45 49 50 48 46 45 44 41
24 21 19 21 23 25 27 32 35 35 32 27 23 23 27 36 44 46 45 43 44 44 41 39 37 34 33 31 30 31 31 33 33 33 32 30 30 33 32 31 33 35 38 37 36 37 39 40 38 38 34 28 27 27 27 27 27 29 29 31 36 37 39 43 43 44 45 43 39 38 41 42 42 43 41 38 38 42 45 45 47 51 52 50 47 44 43 41
24 23 22 22 24 25 26 29 31 32 28 26 27 28 35 45 46 42 41 42 45 43 40 41 40 37 35 33 34 34 33 36 36 34 34 32 36 40 37 35 34 37 43 45 45 45 46 45 43 43 41 35 32 29 31 33 31 30 31 33 37 41 48 51 50 52 52 49 46 46 46 45 44 44 42 39 39 41 44 44 44 47 48 47 43 39 40 42
20 22 23 23 24 25 26 28 29 28 26 26 29 33 42 47 40 35 39 41 41 41 40 41 41 39 34 32 35 36 35 39 37 33 34 33 34 37 36 37 35 35 41 45 45 44 47 48 45 43 42 41 37 30 29 33 34 35 36 38 40 41 47 52 52 53 53 50 49 48 48 46 46 48 47 45 44 42 41 41 42 43 43 40 36 38 43 43
16 18 22 23 23 23 24 27 28 28 27 27 30 36 43 43 32 28 32 34 35 38 38 38 38 36 33 29 31 31 32 37 36 32 32 33 33 33 33 36 36 34 37 40 40 37 39 41 39 39 41 42 39 32 28 27 30 34 35 37 42 43 45 48 48 49 48 48 48 46 46 47 48 49 48 47 46 42 40 39 38 38 38 35 34 38 42 39
11 15 21 24 23 23 26 28 30 31 30 29 33 38 37 34 29 28 31 32 33 35 37 38 36 32 31 30 30 31 31 34 33 30 29 29 30 31 32 33 35 35 36 38 38 37 36 36 34 35 38 38 36 33 30 28 29 31 30 32 38 42 43 46 47 47 44 47 47 43 44 46 45 47 46 44 43 40 38 37 35 34 34 35 36 37 35 35
7 10 17 20 21 25 26 26 29 31 30 30 36 37 30 28 28 31 35 35 33 34 36 37 38 35 33 33 34 34 34 33 30 27 27 27 30 33 33 32 33 35 36 35 36 35 34 34 33 33 35 36 34 30 27 24 22 22 26 31 34 35 38 41 45 46 46 47 44 40 41 39 40 45 44 42 43 42 40 39 39 39 39 39 38 35 33 36
7 8 10 11 21 30 28 25 26 25 27 33 37 34 28 25 27 30 35 37 35 36 34 32 33 35 34 33 34 34 36 37 34 30 28 29 31 33 33 35 34 34 33 31 30 31 29 30 31 30 32 33 34 33 30 26 21 17 19 25 29 32 36 40 43 44 44 44 39 37 37 34 36 42 43 43 45 45 44 45 46 46 44 42 39 36 36 37
8 11 12 11 21 28 24 22 21 21 28 34 34 31 26 21 22 26 31 35 35 32 28 24 24 28 30 32 34 36 37 39 38 35 31 31 35 35 33 37 38 36 34 29 26 27 27 29 31 28 28 30 33 34 32 30 26 22 20 20 21 24 27 32 38 40 42 43 42 42 42 41 42 44 45 46 47 48 48 49 50 49 48 47 42 39 38 38
14 16 21 24 25 23 20 19 17 19 28 32 28 27 25 21 21 27 33 38 37 28 22 21 21 24 30 32 34 36 36 37 36 36 34 33 38 40 38 37 38 37 36 30 24 24 25 28 31 28 27 28 30 30 30 31 31 32 32 29 29 29 27 28 28 30 35 39 41 44 43 45 49 48 49 50 51 56 55 51 52 54 54 51 44 41 40 39
15 15 23 29 26 21 20 21 19 20 26 28 26 23 23 23 27 34 42 46 42 30 22 22 22 23 28 32 34 35 35 35 34 35 36 34 35 39 39 37 36 36 36 31 26 25 25 26 26 25 24 24 24 24 29 33 33 37 38 37 42 46 43 42 39 36 38 41 45 47 44 47 51 49 49 50 52 56 55 53 56 59 58 53 45 42 42 41
15 17 23 27 25 22 22 21 21 23 24 23 24 23 24 27 29 34 41 45 43 34 24 21 22 22 23 26 30 32 33 33 33 34 35 34 35 38 37 34 34 34 34 32 29 27 27 27 25 24 23 22 21 22 26 30 31 35 37 36 41 44 43 45 45 44 45 45 48 51 49 52 55 53 51 51 50 51 50 55 61 61 58 53 46 43 43 42
23 28 31 31 28 26 25 23 21 22 23 22 23 26 29 31 32 35 37 37 36 34 29 25 25 26 25 24 26 28 29 30 30 31 33 36 40 39 35 33 33 31 30 29 28 26 26 24 23 22 19 17 17 16 17 20 21 26 28 26 28 30 31 34 34 34 38 38 40 43 43 48 54 53 51 49 50 50 52 58 63 62 59 53 47 45 44 44
29 31 34 34 30 24 24 24 20 18 21 23 25 28 30 30 32 37 38 36 34 33 32 32 32 30 28 27 27 28 29 29 30 31 31 35 39 39 35 34 33 31 30 30 30 28 26 26 26 25 23 21 20 17 16 18 22 26 27 24 23 23 23 25 26 29 33 34 35 36 36 41 49 49 46 45 47 52 56 59 60 59 57 54 50 49 48 47
38 33 32 32 28 23 20 19 19 21 24 28 31 33 33 33 34 37 37 33 33 33 36 37 36 32 29 28 29 29 29 30 31 31 30 31 33 33 34 34 32 32 32 30 29 27 28 29 29 30 31 29 26 24 26 31 34 34 32 29 28 28 26 26 29 34 37 35 36 36 35 39 44 43 43 43 44 48 53 55 56 57 57 57 56 53 51 49
50 47 45 42 37 32 26 20 18 21 25 28 33 38 41 40 40 43 43 36 30 30 35 35 29 26 27 27 28 29 29 30 30 29 29 30 28 30 33 34 31 31 31 28 25 24 25 25 24 24 25 25 24 23 26 32 35 36 36 32 31 32 32 32 35 39 40 40 38 37 37 40 42 42 45 48 47 50 53 53 54 57 58 60 60 57 54 53
55 55 54 51 48 43 39 36 34 32 30 30 30 33 42 46 44 45 48 44 35 30 32 29 23 23 25 23 23 25 26 27 29 28 28 26 25 28 31 32 32 32 29 27 25 24 24 24 23 23 21 20 20 20 22 26 29 32 34 34 33 33 33 35 39 41 43 44 42 39 40 42 41 42 44 47 47 49 53 55 57 59 60 60 60 59 59 60
58 60 59 54 52 50 49 50 49 43 38 39 37 33 36 40 40 39 42 44 42 39 36 30 25 24 24 23 24 25 25 25 26 28 29 28 28 31 31 30 33 34 31 29 28 27 28 28 27 27 26 23 22 24 26 27 28 27 29 31 31 31 31 33 36 37 41 45 44 42 43 42 40 40 41 43 45 45 49 54 59 61 63 64 63 62 62 63
50 56 58 54 55 57 55 52 50 44 39 40 41 40 37 36 35 36 39 42 45 44 42 39 36 31 27 27 28 30 35 38 36 33 32 34 36 37 37 37 38 40 38 37 36 35 35 36 36 34 32 29 27 28 31 32 31 30 30 31 32 32 32 32 32 34 37 41 42 42 44 42 40 41 40 41 45 47 48 51 55 58 60 61 62 64 63 61
41 46 48 51 57 60 56 53 51 47 44 41 39 40 39 38 37 38 41 45 47 46 45 45 46 40 34 33 35 37 43 45 45 42 39 41 43 43 43 44 44 45 45 46 48 48 47 49 49 46 44 41 36 34 34 35 35 35 36 37 37 38 39 39 38 38 40 41 41 42 43 41 39 41 42 42 44 46 46 47 48 52 54 55 58 61 62 61
33 37 41 48 55 56 55 56 55 54 55 56 53 50 45 43 43 41 41 43 46 47 45 43 43 41 37 39 45 48 46 42 44 45 41 41 45 46 46 47 48 50 51 52 55 55 55 56 57 56 55 51 47 45 44 44 43 42 42 42 42 42 45 45 44 44 46 46 44 44 43 41 40 43 44 43 44 47 48 47 48 50 51 53 58 62 63 63
26 30 34 39 46 47 47 53 59 63 67 66 64 62 57 53 52 51 49 46 44 45 45 41 40 39 38 42 46 47 45 43 45 44 38 36 38 39 40 41 43 46 48 50 52 52 53 55 58 59 58 53 51 52 52 53 52 49 46 44 44 43 44 45 45 45 46 45 44 43 41 41 44 48 48 48 49 48 50 52 53 54 54 54 57 60 62 64